RYR88YX LEZG-LEPA

Flight info

Callsign RYR88YX
Flight time 0h 45m
Altitude 33000
Route PONEN N870 SEROX DCT VILAR/N0453F340 DCT KARES DCT BISES DCT BCN/N0457F330 DCT LORES
Aircraft B738/M-SABDFGRVYL/LB2

Departure

Time 2026-05-06 13:45
Airport Zaragoza Airport (LEZG)

Arrival

Time 2026-05-06 14:30
Airport Palma de Mallorca Airport (LEPA)
Time Latitude Longitude Altitude Speed Heading
2026-05-06 13:29 41.66238 -1.00792 829 ft 0 kts 287°
2026-05-06 13:41 41.66238 -1.00793 829 ft 0 kts 287°
2026-05-06 13:42 41.66233 -1.00819 829 ft 5 kts 245°
2026-05-06 13:42 41.66211 -1.00858 830 ft 7 kts 219°
2026-05-06 13:42 41.66124 -1.00821 831 ft 18 kts 134°
2026-05-06 13:42 41.66052 -1.00679 831 ft 18 kts 123°
2026-05-06 13:43 41.65953 -1.00582 832 ft 17 kts 170°
2026-05-06 13:43 41.65838 -1.00625 834 ft 16 kts 210°
2026-05-06 13:43 41.65741 -1.00701 836 ft 15 kts 210°
2026-05-06 13:43 41.65654 -1.00770 839 ft 13 kts 211°
2026-05-06 13:44 41.65583 -1.00838 841 ft 11 kts 238°
2026-05-06 13:44 41.65610 -1.00996 844 ft 30 kts 300°
2026-05-06 13:44 41.65834 -1.01516 850 ft 104 kts 300°
2026-05-06 13:44 41.66324 -1.02635 875 ft 171 kts 298°
2026-05-06 13:45 41.66869 -1.04015 1815 ft 168 kts 298°
2026-05-06 13:45 41.67842 -1.06814 3234 ft 181 kts 301°
2026-05-06 13:45 41.68498 -1.08261 3986 ft 182 kts 302°
2026-05-06 13:46 41.69155 -1.09828 4298 ft 210 kts 303°
2026-05-06 13:46 41.69803 -1.11636 5021 ft 219 kts 288°
2026-05-06 13:46 41.70026 -1.13732 5454 ft 246 kts 272°
2026-05-06 13:46 41.69741 -1.16072 6110 ft 262 kts 252°
2026-05-06 13:47 41.68930 -1.18206 7155 ft 262 kts 239°
2026-05-06 13:47 41.67625 -1.20107 7429 ft 294 kts 219°
2026-05-06 13:47 41.65899 -1.21396 8755 ft 281 kts 203°
2026-05-06 13:47 41.63940 -1.21879 9467 ft 294 kts 178°
2026-05-06 13:48 41.61978 -1.21164 10341 ft 298 kts 152°
2026-05-06 13:48 41.60344 -1.19480 11201 ft 303 kts 133°
2026-05-06 13:48 41.59116 -1.17071 11528 ft 324 kts 117°
2026-05-06 13:48 41.58112 -1.14374 12182 ft 333 kts 115°
2026-05-06 13:49 41.57102 -1.11485 12567 ft 352 kts 115°
2026-05-06 13:49 41.56042 -1.08461 13035 ft 367 kts 115°
2026-05-06 13:49 41.54905 -1.05328 13473 ft 383 kts 116°
2026-05-06 13:49 41.53686 -1.02072 13886 ft 399 kts 117°
2026-05-06 13:50 41.52417 -0.98748 14525 ft 408 kts 117°
2026-05-06 13:50 41.51111 -0.95357 15296 ft 413 kts 117°
2026-05-06 13:50 41.49795 -0.91951 16032 ft 419 kts 117°
2026-05-06 13:50 41.48454 -0.88485 16791 ft 423 kts 117°
2026-05-06 13:51 41.47094 -0.84973 17560 ft 427 kts 117°
2026-05-06 13:51 41.45732 -0.81455 18207 ft 433 kts 117°
2026-05-06 13:51 41.44337 -0.77850 18900 ft 438 kts 117°
2026-05-06 13:51 41.42927 -0.74208 19581 ft 444 kts 117°
2026-05-06 13:52 41.41501 -0.70527 20191 ft 450 kts 117°
2026-05-06 13:52 41.40062 -0.66821 20795 ft 456 kts 118°
2026-05-06 13:52 41.38587 -0.63027 21399 ft 461 kts 118°
2026-05-06 13:52 41.37180 -0.59197 21972 ft 467 kts 114°
2026-05-06 13:53 41.36057 -0.55101 22515 ft 474 kts 105°
2026-05-06 13:53 41.35395 -0.50803 23047 ft 480 kts 97°
2026-05-06 13:53 41.35092 -0.46348 23569 ft 485 kts 93°
2026-05-06 13:53 41.34975 -0.41857 24094 ft 491 kts 90°
2026-05-06 13:54 41.34959 -0.37302 24726 ft 494 kts 89°
2026-05-06 13:54 41.34985 -0.32653 25235 ft 499 kts 90°
2026-05-06 13:54 41.35019 -0.28041 25786 ft 502 kts 90°
2026-05-06 13:54 41.35043 -0.23358 26260 ft 507 kts 90°
2026-05-06 13:55 41.35051 -0.18671 26702 ft 511 kts 91°
2026-05-06 13:55 41.35039 -0.13884 27366 ft 510 kts 91°
2026-05-06 13:55 41.35014 -0.09111 28022 ft 509 kts 91°
2026-05-06 13:55 41.34977 -0.04396 28598 ft 509 kts 92°
2026-05-06 13:56 41.34932 0.00329 29214 ft 508 kts 92°
2026-05-06 13:56 41.34880 0.05080 29779 ft 508 kts 93°
2026-05-06 13:56 41.34825 0.09798 30259 ft 509 kts 93°
2026-05-06 13:56 41.34768 0.14500 30792 ft 508 kts 93°
2026-05-06 13:57 41.34708 0.19232 31357 ft 507 kts 93°
2026-05-06 13:57 41.34646 0.23930 31800 ft 507 kts 93°
2026-05-06 13:57 41.34584 0.28613 32277 ft 507 kts 93°
2026-05-06 13:57 41.34519 0.33332 32769 ft 506 kts 93°
2026-05-06 13:58 41.34452 0.38063 32897 ft 510 kts 93°
2026-05-06 13:58 41.34383 0.42752 32898 ft 507 kts 93°
2026-05-06 13:58 41.34243 0.52156 32894 ft 505 kts 93°
2026-05-06 13:59 41.34096 0.61517 32907 ft 507 kts 94°
2026-05-06 13:59 41.33940 0.70890 32913 ft 506 kts 94°
2026-05-06 14:00 41.33776 0.80296 32923 ft 506 kts 94°
2026-05-06 14:00 41.33605 0.89688 32930 ft 508 kts 94°
2026-05-06 14:01 41.33427 0.99074 32937 ft 507 kts 94°
2026-05-06 14:01 41.33239 1.08526 32933 ft 509 kts 94°
2026-05-06 14:02 41.33046 1.17874 32930 ft 509 kts 94°
2026-05-06 14:02 41.32841 1.27347 32920 ft 510 kts 94°
2026-05-06 14:03 41.32632 1.36819 32919 ft 508 kts 95°
2026-05-06 14:03 41.32414 1.46268 32915 ft 510 kts 95°
2026-05-06 14:04 41.32189 1.55658 32906 ft 510 kts 95°
2026-05-06 14:04 41.31956 1.65062 32903 ft 509 kts 95°
2026-05-06 14:05 41.31714 1.74527 32908 ft 509 kts 96°
2026-05-06 14:05 41.31465 1.83964 32915 ft 509 kts 96°
2026-05-06 14:06 41.31207 1.93354 32913 ft 509 kts 96°
2026-05-06 14:06 41.30174 2.02631 32917 ft 498 kts 114°
2026-05-06 14:07 41.28803 2.06828 32924 ft 488 kts 126°
2026-05-06 14:07 41.26942 2.10542 32921 ft 479 kts 135°
2026-05-06 14:07 41.22396 2.16811 32919 ft 466 kts 149°
2026-05-06 14:08 41.17044 2.21444 32919 ft 454 kts 158°
2026-05-06 14:08 41.11462 2.25477 32917 ft 454 kts 160°
2026-05-06 14:09 41.05911 2.29419 32916 ft 453 kts 160°
2026-05-06 14:09 41.00377 2.33393 32916 ft 453 kts 159°
2026-05-06 14:10 40.94866 2.37392 32914 ft 452 kts 161°
2026-05-06 14:10 40.91957 2.38799 32920 ft 433 kts 176°
2026-05-06 14:10 40.89019 2.39184 32925 ft 423 kts 186°
2026-05-06 14:11 40.83153 2.38816 32925 ft 418 kts 191°
2026-05-06 14:11 40.77330 2.38366 32923 ft 420 kts 189°
2026-05-06 14:12 40.71476 2.38140 32406 ft 423 kts 188°
2026-05-06 14:12 40.68480 2.38091 31217 ft 434 kts 187°
2026-05-06 14:12 40.65437 2.38072 29925 ft 441 kts 186°
2026-05-06 14:13 40.62426 2.38084 28681 ft 435 kts 186°
2026-05-06 14:13 40.59420 2.38117 27423 ft 431 kts 185°
2026-05-06 14:13 40.56462 2.38158 26184 ft 426 kts 185°
2026-05-06 14:13 40.53524 2.38203 24953 ft 421 kts 185°
2026-05-06 14:14 40.50623 2.38248 23740 ft 416 kts 184°
2026-05-06 14:14 40.47760 2.38291 22688 ft 413 kts 184°
2026-05-06 14:14 40.44901 2.38331 21778 ft 415 kts 184°
2026-05-06 14:14 40.42014 2.38370 21049 ft 412 kts 184°
2026-05-06 14:15 40.39188 2.38411 20430 ft 408 kts 184°
2026-05-06 14:15 40.36356 2.38453 19838 ft 402 kts 184°
2026-05-06 14:15 40.33597 2.38495 19242 ft 398 kts 184°
2026-05-06 14:15 40.30831 2.38536 18667 ft 393 kts 184°
2026-05-06 14:16 40.28109 2.38575 18102 ft 388 kts 184°
2026-05-06 14:16 40.25447 2.38613 17534 ft 383 kts 183°
2026-05-06 14:16 40.22800 2.38650 16972 ft 379 kts 183°
2026-05-06 14:16 40.20175 2.38685 16399 ft 375 kts 183°
2026-05-06 14:17 40.17561 2.38721 15829 ft 371 kts 183°
2026-05-06 14:17 40.14990 2.38756 15269 ft 370 kts 183°
2026-05-06 14:17 40.12434 2.38788 14702 ft 373 kts 183°
2026-05-06 14:17 40.09817 2.38822 14119 ft 371 kts 182°
2026-05-06 14:18 40.07258 2.38857 13551 ft 367 kts 182°
2026-05-06 14:18 40.04745 2.38893 12996 ft 363 kts 182°
2026-05-06 14:18 40.02222 2.38929 12431 ft 359 kts 182°
2026-05-06 14:18 39.99749 2.38963 11876 ft 356 kts 182°
2026-05-06 14:19 39.97281 2.38997 11318 ft 352 kts 182°
2026-05-06 14:19 39.94868 2.39031 10881 ft 346 kts 182°
2026-05-06 14:19 39.92499 2.39066 10636 ft 334 kts 182°
2026-05-06 14:19 39.90196 2.39102 10511 ft 319 kts 181°
2026-05-06 14:20 39.88033 2.39135 10388 ft 306 kts 182°
2026-05-06 14:20 39.85952 2.39164 10263 ft 294 kts 182°
2026-05-06 14:20 39.83942 2.39192 10139 ft 283 kts 182°
2026-05-06 14:20 39.81980 2.39218 9965 ft 274 kts 182°
2026-05-06 14:21 39.80079 2.39241 9617 ft 273 kts 182°
2026-05-06 14:21 39.78177 2.39263 9250 ft 273 kts 182°
2026-05-06 14:21 39.76281 2.39288 8898 ft 272 kts 182°
2026-05-06 14:21 39.74398 2.39314 8550 ft 271 kts 181°
2026-05-06 14:22 39.72507 2.39342 8197 ft 270 kts 181°
2026-05-06 14:22 39.70647 2.39369 7857 ft 269 kts 181°
2026-05-06 14:22 39.68781 2.39394 7511 ft 267 kts 181°
2026-05-06 14:22 39.66935 2.39419 7171 ft 266 kts 181°
2026-05-06 14:23 39.65080 2.39443 6800 ft 266 kts 181°
2026-05-06 14:23 39.63231 2.39466 6431 ft 265 kts 180°
2026-05-06 14:23 39.61380 2.39487 6126 ft 263 kts 180°
2026-05-06 14:23 39.59558 2.39511 5810 ft 262 kts 180°
2026-05-06 14:24 39.57739 2.39536 5478 ft 262 kts 179°
2026-05-06 14:24 39.55891 2.39608 5129 ft 265 kts 174°
2026-05-06 14:24 39.54138 2.40167 4900 ft 263 kts 154°
2026-05-06 14:24 39.52596 2.41462 4651 ft 264 kts 140°
2026-05-06 14:25 39.51168 2.42951 4423 ft 259 kts 140°
2026-05-06 14:25 39.49762 2.44366 4206 ft 253 kts 141°
2026-05-06 14:25 39.48358 2.45701 4006 ft 248 kts 142°
2026-05-06 14:25 39.46987 2.46977 3805 ft 243 kts 142°
2026-05-06 14:26 39.45663 2.48312 3593 ft 236 kts 130°
2026-05-06 14:26 39.44957 2.50115 3432 ft 225 kts 96°
2026-05-06 14:26 39.45134 2.52052 3253 ft 216 kts 63°
2026-05-06 14:26 39.46056 2.53528 3123 ft 208 kts 41°
2026-05-06 14:27 39.47027 2.54876 2971 ft 203 kts 53°
2026-05-06 14:27 39.47773 2.56431 2629 ft 205 kts 60°
2026-05-06 14:27 39.48493 2.58051 2330 ft 204 kts 58°
2026-05-06 14:27 39.49240 2.59604 2056 ft 203 kts 57°
2026-05-06 14:28 39.49976 2.61124 1778 ft 201 kts 58°
2026-05-06 14:28 39.50699 2.62649 1513 ft 195 kts 59°
2026-05-06 14:28 39.51400 2.64127 1260 ft 188 kts 58°
2026-05-06 14:28 39.52082 2.65553 1024 ft 181 kts 59°
2026-05-06 14:29 39.52711 2.66890 814 ft 163 kts 59°
2026-05-06 14:29 39.53285 2.68090 585 ft 153 kts 60°
2026-05-06 14:29 39.53825 2.69172 374 ft 141 kts 58°
2026-05-06 14:29 39.54345 2.70260 187 ft 141 kts 60°
2026-05-06 14:30 39.54851 2.71336 25 ft 139 kts 65°
2026-05-06 14:30 39.55251 2.72204 12 ft 80 kts 60°
2026-05-06 14:30 39.55472 2.72711 13 ft 60 kts 71°
2026-05-06 14:30 39.55500 2.73128 18 ft 42 kts 83°
2026-05-06 14:31 39.55618 2.73426 22 ft 31 kts 72°
2026-05-06 14:31 39.55501 2.73550 27 ft 22 kts 216°
2026-05-06 14:31 39.55389 2.73474 31 ft 17 kts 156°
2026-05-06 14:31 39.55310 2.73540 40 ft 8 kts 144°
2026-05-06 14:32 39.55270 2.73575 45 ft 5 kts 148°
2026-05-06 14:32 39.55230 2.73605 48 ft 13 kts 151°
2026-05-06 14:32 39.55140 2.73605 47 ft 14 kts 229°
2026-05-06 14:32 39.55089 2.73580 44 ft 3 kts 162°
2026-05-06 14:33 39.55071 2.73587 44 ft 0 kts 162°